SCP
0 0 0 0 0 0 0 0 0 0 0 0 0 0 0 0 0 0 0 0 0 0 0 0 0 0 0 0 0 0 0 0 0 0 0 0 0 0 0 0 0 0 0 0 -0
0 0 0 0 0 0 0 0 0 0 0 0 0 0 0 0 0 0 0 0 0 0 0 0 0 0 0 0 0 0 0 0 0 0 0 0 0 0 0 0 0 0 0 0 -0
0 0 0 0 0 0 0 0 0 0 0 0 0 0 0 0 0 0 0 0 0 0 0 0 0 0 0 0 0 0 0 0 0 0 0 0 0 0 0 0 0 0 0 0 -0
0 0 0 0 0 0 0 0 0 0 0 0 0 0 0 0 0 0 0 0 0 0 0 0 0 0 0 0 0 0 0 0 0 0 0 0 0 0 0 0 0 0 0 0 -0
0 0 0 0 0 0 0 0 0 0 0 0 0 0 0 0 0 0 0 0 0 0 0 0 0 0 0 0 0 0 0 0 0 0 0 0 0 0 0 0 0 0 0 0 0
0 0 0 0 0 0 0 0 0 0 0 0 0 0 0 0 0 0 0 0 0 0 0 0 0 0 0 0 0 0 0 0 0 0 0 0 0 0 0 0 0 0 0 0 0
0 0 0 0 0 0 0 0 -0 0 -0 0 0 0 0 0 0 0 0 0 0 0 0 0 0 0 0 0 0 0 0 0 0 0 0 0 0 0 0 0 0 0 0 0 0
0 0 0 0 0 0 0 0 0 0 0 0 0 0 0 0 0 0 0 0 0 0 0 0 0 0 0 0 0 0 0 0 0 0 0 0 0 0 0 0 0 0 0 0 0
0 0 0 0 0 0 0 0 0 -0 0 0 0 0 0 0 0 0 0 0 0 0 0 0 0 0 0 0 0 0 0 0 0 0 0 0 0 0 0 0 0 0 0 0 0
0 0 0 0 0 0 0 0 0 0 0 0 0 0 0 0 0 0 0 0 0 0 0 0 0 0 0 0 0 0 0 0 0 0 0 0 0 0 0 0 0 0 0 0 0
0 0 0 0 0 0 0 0 0 0 0 0 0 0 0 0 0 0 0 0 0 0 0 0 0 0 0 0 0 0 0 0 0 0 0 0 0 0 0 0 0 0 0 0 0
0 0 0 0 0 0 0 0 0 0 0 0 0 0 0 0 0 0 0 0 0 0 0 0 0 0 0 0 0 0 0 0 0 0 0 0 0 0 0 0 0 0 0 0 0
0 0 0 0 0 0 0 0 0 0 0 0 0 0 0 0 0 0 0 0 0 0 0 0 0 0 0 0 0 0 0 0 0 0 0 0 0 0 0 0 0 0 0 0 0
0 0 0 0 0 0 0 0 0 0 0 0 0 0 0 0 0 0 0 0 0 0 0 0 0 0 0 0 0 0 0 0 0 0 0 0 -0 0 0 0 0 0 0 0 0
0 0 0 0 0 0 0 0 0 0 0 0 0 0 0 0 0 0 0 0 0 0 0 0 0 0 0 0 0 0 0 0 0 0 0 0 0 -0 0 0 0 0 0 0 0
0 0 0 0 0 0 0 0 0 0 0 0 0 0 0 0 0 0 0 0 0 0 0 0 0 0 0 0 0 0 0 0 0 0 0 0 0 -0 0 0 0 0 0 0 -0
0 0 0 0 0 0 0 0 -0 0 0 0 0 0 0 0 0 0 0 0 0 0 0 0 0 0 0 0 0 0 0 0 0 0 0 0 0 0 0 0 0 0 0 0 0
0 0 0 0 0 0 0 0 0 0 0 0 0 0 0 0 0 0 0 0 0 0 0 0 0 0 0 0 0 0 0 0 0 0 0 0 0 0 0 0 -0 0 0 0 0
0 0 0 0 0 0 0 0 0 0 0 0 0 0 0 0 0 0 0 0 0 0 0 0 0 0 0 0 0 0 0 0 0 0 0 0 0 0 0 0 0 0 -0 -0 0
0 0 0 0 0 0 0 -0 -0 -0 0 0 0 0 0 0 0 0 0 0 0 0 0 0 0 0 0 0 0 0 0 0 0 0 0 0 0 0 0 0 -0 0 0 0 0
0 0 0 0 0 0 0 0 -0 -0 0 0 0 0 0 0 0 0 0 0 0 0 0 0 0 0 0 0 0 0 0 0 0 0 0 0 0 0 0 0 0 0 0 0 0
0 0 0 0 0 0 0 -0 -0 -0 -0 0 0 0 0 0 0 0 0 0 0 0 0 0 0 0 0 0 0 0 0 0 0 0 0 0 0 0 0 0 0 0 0 0 0
0 0 0 0 0 0 0 -0 0 -0 0 0 0 0 0 0 0 0 0 0 0 0 0 0 0 0 0 0 0 0 0 0 0 0 0 0 0 0 0 0 0 0 0 0 0
0 0 0 0 0 0 0 -0 -0 -0 0 0 0 0 0 0 0 0 0 0 0 0 0 0 0 0 0 0 0 0 0 0 0 0 0 0 0 0 0 0 0 0 0 0 -0
0 0 0 0 0 0 -0 -0 -0 -0 -0 -0 0 0 0 0 0 0 0 0 0 0 0 0 0 0 0 0 0 0 0 0 0 0 0 0 0 0 0 0 0 0 0 -0 0
0 0 0 0 0 0 0 0 -0 0 0 0 0 0 0 0 0 0 0 0 0 0 0 0 0 0 0 0 0 0 0 0 0 0 0 0 0 0 0 0 0 0 0 0 0
0 0 0 0 0 0 0 0 -0 0 -0 0 0 0 0 0 0 0 0 0 0 0 0 0 0 0 0 0 0 0 0 0 0 0 0 0 0 0 0 0 0 0 0 0 0
Wind_Speed_500mb
44 47 47 47 46 42 44 44 56 46 47 50 51 46 49 47 69 66 61 65 62 27 49 44 30 30 29 23 18 16 10 15 18 14 7 21 25 14 13 19 13 19 6 11 52
47 47 47 48 49 46 45 43 57 52 44 48 49 49 45 45 60 74 70 69 63 54 45 45 34 32 17 20 16 15 16 17 9 11 8 29 28 30 17 19 13 18 17 23 56
50 49 46 47 50 50 49 47 51 61 42 46 46 49 53 41 44 48 80 64 57 70 61 54 30 27 13 15 15 11 17 13 12 10 6 26 18 20 21 18 30 38 35 41 61
53 51 48 48 53 53 49 46 52 62 49 47 46 52 49 49 24 37 71 74 58 58 52 62 46 20 7 10 10 11 9 14 14 14 13 18 23 17 33 11 19 25 37 47 63
54 52 50 48 49 53 49 42 52 57 55 49 48 50 67 48 36 21 66 83 67 59 63 58 40 32 10 8 7 5 8 12 13 15 10 16 23 18 34 23 9 32 39 46 60
58 54 52 47 45 46 44 47 49 57 76 46 51 55 66 47 50 48 52 73 70 69 66 71 42 46 23 9 1 5 6 6 10 11 12 12 8 12 24 34 22 33 40 45 55
65 60 53 54 48 40 39 47 50 46 76 58 51 73 73 55 49 48 60 54 72 64 69 73 63 54 29 14 17 11 8 4 12 14 8 14 7 23 17 37 32 37 41 44 50
66 64 59 53 52 47 41 36 54 49 53 67 56 80 16 67 42 39 62 52 76 68 61 69 55 45 21 31 16 10 9 12 17 16 11 15 31 19 32 35 38 36 36 43 48
73 70 62 59 50 47 40 40 37 41 58 64 55 87 34 56 65 62 40 71 77 51 71 50 33 15 22 25 11 5 10 29 13 25 11 19 20 13 30 35 37 37 38 41 42
71 63 57 57 61 55 44 36 38 44 43 62 75 49 36 48 77 69 46 38 58 56 31 31 22 7 17 34 37 25 11 11 31 19 15 23 27 5 23 32 40 40 41 42 44
71 59 52 50 50 50 39 29 23 19 58 44 38 28 56 48 59 51 55 39 46 33 14 23 21 34 36 39 33 35 35 30 18 11 15 31 31 29 19 26 33 39 43 44 47
71 59 48 46 44 43 38 31 36 15 18 78 52 58 70 81 31 59 52 24 23 18 11 8 40 31 36 30 19 33 35 27 8 10 16 18 33 33 28 24 43 47 44 48 40
71 59 49 43 44 43 49 58 40 40 15 19 56 58 76 64 36 63 70 36 16 24 13 19 14 22 20 28 26 22 31 22 11 13 5 2 22 25 21 39 32 35 42 41 50
74 63 54 47 42 43 43 48 49 32 6 14 34 26 53 56 16 78 62 37 8 13 15 5 18 30 26 35 31 19 16 22 21 18 12 8 12 25 35 29 31 48 45 51 57
74 65 61 61 31 40 20 38 34 29 11 32 19 52 70 61 65 43 72 25 28 21 13 14 9 26 40 30 17 9 19 21 9 14 5 12 10 9 5 26 35 47 56 62 59
76 68 61 54 40 29 28 21 27 9 18 18 24 30 53 36 35 47 29 19 31 17 6 5 19 7 5 11 13 28 23 15 7 5 13 26 20 13 16 27 38 42 61 73 79
77 67 63 56 47 38 22 30 6 13 5 9 19 41 50 32 27 43 36 36 23 15 11 5 4 16 7 27 16 15 35 11 10 11 11 4 13 27 17 15 21 33 45 66 80
75 62 58 51 34 39 37 2 6 14 13 8 30 51 27 55 39 47 48 32 32 15 20 15 10 24 18 32 20 35 32 12 14 12 7 2 14 6 16 30 37 36 27 30 54
69 59 55 50 46 39 36 9 10 9 11 12 39 55 22 30 29 37 48 47 26 29 25 21 7 18 6 8 31 22 22 11 13 5 4 10 8 19 22 26 24 27 26 37 40
73 58 40 51 45 48 12 23 18 24 15 21 32 30 26 34 41 35 48 45 24 30 6 22 13 3 1 3 5 23 25 10 2 12 9 7 9 15 7 22 11 13 17 20 33
65 30 31 45 46 31 14 16 13 24 19 22 19 9 26 33 51 55 60 38 41 38 6 18 16 4 9 16 29 12 19 4 9 5 7 5 6 10 5 11 18 17 14 19 16
43 11 46 64 14 7 20 18 22 32 23 14 11 13 47 55 49 31 48 39 75 50 27 13 11 18 41 7 6 3 15 16 12 11 4 3 9 7 8 7 13 20 17 21 23
46 16 37 83 14 20 9 23 23 3 17 8 15 13 39 38 27 17 25 10 74 49 34 19 6 15 12 3 1 23 20 34 7 4 13 12 9 9 9 10 7 9 10 8 8
25 10 16 51 21 28 28 24 23 31 26 9 15 20 41 32 12 24 22 5 58 48 25 18 5 8 23 41 20 31 35 29 27 9 11 32 11 10 16 14 8 6 14 13 3
16 10 19 11 18 22 32 27 32 25 25 9 13 34 44 26 12 24 20 12 22 43 14 11 10 6 11 8 20 29 31 33 35 42 24 57 38 36 33 16 16 16 27 27 17
22 12 14 8 26 27 28 31 34 30 11 11 21 41 38 34 30 52 31 30 38 16 25 1 12 10 5 11 13 9 28 30 50 46 53 33 42 2 32 41 39 40 46 39 27
26 26 21 17 12 20 27 33 44 39 34 42 24 32 40 38 35 43 39 37 26 31 30 19 10 6 10 4 14 7 49 51 39 53 41 45 23 15 10 15 28 33 40 38 29
Wind_Direction_500mb
239 238 241 241 246 248 250 250 230 244 249 241 235 242 227 217 213 218 216 226 218 217 212 194 216 203 193 197 190 175 204 216 207 183 198 164 176 160 172 143 167 189 184 170 178
239 239 242 242 244 248 248 248 233 231 241 236 230 235 236 223 218 216 220 221 221 209 208 180 204 185 181 183 178 201 219 213 196 201 200 177 192 160 164 160 190 184 192 174 176
237 238 240 240 244 246 246 248 238 228 232 231 228 231 230 225 202 219 218 218 218 218 220 197 189 173 181 178 180 185 218 194 188 187 155 181 187 177 170 193 202 195 185 174 180
237 236 239 241 241 243 247 254 240 230 224 228 225 228 221 213 215 230 219 207 207 211 212 207 216 149 208 174 171 199 210 179 157 183 157 176 181 194 203 181 208 193 198 181 187
238 237 237 241 243 242 247 256 243 235 218 223 225 221 202 203 215 217 213 206 204 201 206 195 180 174 158 140 187 219 180 182 170 176 180 172 198 203 215 211 183 188 192 192 194
234 235 233 236 241 241 246 247 252 235 226 235 219 218 195 208 210 211 211 203 201 201 209 212 204 193 166 140 35 339 173 194 181 180 178 177 194 197 227 204 193 188 197 199 202
229 233 232 233 236 239 240 243 248 234 233 237 215 211 191 196 202 217 222 194 195 200 206 210 213 192 171 127 215 11 206 214 197 186 174 154 175 221 220 193 194 192 199 202 204
224 232 228 228 232 240 243 242 235 261 228 225 210 203 210 206 199 216 220 208 191 194 204 204 208 190 170 139 65 36 302 199 189 183 174 202 238 226 201 191 202 197 197 204 209
226 232 234 226 227 234 242 246 242 251 233 221 215 211 202 185 201 212 214 208 193 189 203 188 185 153 143 138 104 87 218 206 188 209 156 211 234 202 189 197 204 205 204 207 209
226 229 231 230 230 235 241 242 244 250 247 231 229 189 168 186 183 193 210 212 187 186 154 172 203 179 192 175 183 166 197 222 206 184 200 200 243 177 196 205 209 207 209 211 213
221 223 226 225 224 226 228 221 235 257 247 237 177 192 178 162 170 175 197 198 154 141 176 175 195 205 180 191 174 167 197 187 194 173 179 218 237 229 196 210 216 216 214 217 220
215 217 221 218 211 215 215 203 208 215 283 235 202 191 169 163 126 154 174 142 151 155 124 97 223 204 178 179 150 176 185 188 113 147 200 216 240 237 217 222 217 215 215 220 215
210 210 214 208 203 212 217 214 211 222 248 215 205 181 171 167 141 154 155 129 137 150 161 163 214 168 162 178 161 185 188 172 146 158 191 209 262 230 227 229 228 226 225 224 219
207 205 208 191 199 210 216 217 223 219 285 227 189 183 169 177 136 158 147 135 129 134 134 223 253 168 159 180 164 176 195 155 144 179 212 213 263 228 225 221 216 225 221 226 224
205 201 204 195 193 207 200 211 206 179 250 161 158 175 165 168 137 173 161 144 136 146 166 172 244 177 178 173 169 165 153 147 148 191 231 177 245 217 242 228 223 223 221 227 228
201 198 197 195 193 202 212 170 166 198 232 188 137 170 159 146 159 143 167 130 119 108 324 20 309 282 213 108 176 142 114 85 95 177 247 224 229 231 216 226 230 221 218 225 229
197 195 193 191 202 176 150 145 156 241 116 217 169 157 160 154 131 154 174 150 140 133 151 147 241 306 284 128 151 181 156 142 181 204 238 53 225 258 237 243 236 228 225 226 229
193 187 187 188 191 184 183 53 215 210 212 265 167 155 160 150 162 168 162 162 158 137 128 184 169 204 198 187 183 176 180 159 172 187 176 109 235 235 266 268 257 255 253 243 238
184 182 184 186 176 163 141 181 226 225 153 208 161 156 157 158 140 159 176 177 166 174 149 180 161 171 214 170 166 182 199 113 104 12 153 205 265 265 270 265 249 261 253 253 249
175 173 183 182 177 169 167 194 219 245 302 218 179 173 158 162 147 163 176 186 172 186 42 174 122 137 74 103 18 204 143 164 214 157 204 193 260 241 209 249 283 282 275 253 250
161 148 188 177 174 167 204 205 199 233 197 230 190 139 157 161 163 163 172 179 192 182 165 175 125 155 182 208 188 156 183 157 150 199 185 195 209 215 231 252 278 288 299 288 266
147 147 169 168 170 187 205 185 205 253 219 275 241 160 170 172 171 169 187 174 185 162 173 196 110 150 191 81 321 144 172 186 203 186 148 77 270 175 216 268 272 295 305 284 283
141 111 174 171 176 194 224 210 213 142 222 234 230 196 166 173 162 178 169 57 171 170 162 182 130 118 104 33 215 220 193 201 139 86 188 185 198 170 212 250 279 296 348 353 290
135 152 171 195 208 189 187 205 212 229 255 272 281 157 148 173 116 172 153 136 176 170 155 109 127 162 181 205 148 196 201 200 188 209 145 236 190 212 204 188 200 108 51 7 333
154 181 172 177 200 213 193 200 211 217 224 205 262 170 161 161 123 162 147 109 152 174 152 128 133 118 57 71 154 186 175 171 192 221 198 248 227 227 247 214 229 278 299 304 309
145 155 163 166 192 192 211 215 196 196 193 218 237 184 174 169 176 174 161 164 174 169 187 329 143 136 57 70 88 137 173 180 210 217 234 251 255 214 233 251 260 272 285 287 262
170 156 160 172 169 185 207 207 209 196 221 217 251 200 192 190 172 156 168 167 143 168 174 156 117 89 161 111 74 322 205 201 210 222 227 233 243 156 209 225 231 247 265 267 258
Wind_Speed_850mb
44 47 47 47 46 42 44 44 56 46 47 50 51 46 49 47 69 66 61 65 62 27 49 44 30 30 29 23 18 16 10 15 18 14 7 21 25 14 13 19 13 19 6 11 52
47 47 47 48 49 46 45 43 57 52 44 48 49 49 45 45 60 74 70 69 63 54 45 45 34 32 17 20 16 15 16 17 9 11 8 29 28 30 17 19 13 18 17 23 56
50 49 46 47 50 50 49 47 51 61 42 46 46 49 53 41 44 48 80 64 57 70 61 54 30 27 13 15 15 11 17 13 12 10 6 26 18 20 21 18 30 38 35 41 61
53 51 48 48 53 53 49 46 52 62 49 47 46 52 49 49 24 37 71 74 58 58 52 62 46 20 7 10 10 11 9 14 14 14 13 18 23 17 33 11 19 25 37 47 63
54 52 50 48 49 53 49 42 52 57 55 49 48 50 67 48 36 21 66 83 67 59 63 58 40 32 10 8 7 5 8 12 13 15 10 16 23 18 34 23 9 32 39 46 60
58 54 52 47 45 46 44 47 49 57 76 46 51 55 66 47 50 48 52 73 70 69 66 71 42 46 23 9 1 5 6 6 10 11 12 12 8 12 24 34 22 33 40 45 55
65 60 53 54 48 40 39 47 50 46 76 58 51 73 73 55 49 48 60 54 72 64 69 73 63 54 29 14 17 11 8 4 12 14 8 14 7 23 17 37 32 37 41 44 50
66 64 59 53 52 47 41 36 54 49 53 67 56 80 16 67 42 39 62 52 76 68 61 69 55 45 21 31 16 10 9 12 17 16 11 15 31 19 32 35 38 36 36 43 48
73 70 62 59 50 47 40 40 37 41 58 64 55 87 34 56 65 62 40 71 77 51 71 50 33 15 22 25 11 5 10 29 13 25 11 19 20 13 30 35 37 37 38 41 42
71 63 57 57 61 55 44 36 38 44 43 62 75 49 36 48 77 69 46 38 58 56 31 31 22 7 17 34 37 25 11 11 31 19 15 23 27 5 23 32 40 40 41 42 44
71 59 52 50 50 50 39 29 23 19 58 44 38 28 56 48 59 51 55 39 46 33 14 23 21 34 36 39 33 35 35 30 18 11 15 31 31 29 19 26 33 39 43 44 47
71 59 48 46 44 43 38 31 36 15 18 78 52 58 70 81 31 59 52 24 23 18 11 8 40 31 36 30 19 33 35 27 8 10 16 18 33 33 28 24 43 47 44 48 40
71 59 49 43 44 43 49 58 40 40 15 19 56 58 76 64 36 63 70 36 16 24 13 19 14 22 20 28 26 22 31 22 11 13 5 2 22 25 21 39 32 35 42 41 50
74 63 54 47 42 43 43 48 49 32 6 14 34 26 53 56 16 78 62 37 8 13 15 5 18 30 26 35 31 19 16 22 21 18 12 8 12 25 35 29 31 48 45 51 57
74 65 61 61 31 40 20 38 34 29 11 32 19 52 70 61 65 43 72 25 28 21 13 14 9 26 40 30 17 9 19 21 9 14 5 12 10 9 5 26 35 47 56 62 59
76 68 61 54 40 29 28 21 27 9 18 18 24 30 53 36 35 47 29 19 31 17 6 5 19 7 5 11 13 28 23 15 7 5 13 26 20 13 16 27 38 42 61 73 79
77 67 63 56 47 38 22 30 6 13 5 9 19 41 50 32 27 43 36 36 23 15 11 5 4 16 7 27 16 15 35 11 10 11 11 4 13 27 17 15 21 33 45 66 80
75 62 58 51 34 39 37 2 6 14 13 8 30 51 27 55 39 47 48 32 32 15 20 15 10 24 18 32 20 35 32 12 14 12 7 2 14 6 16 30 37 36 27 30 54
69 59 55 50 46 39 36 9 10 9 11 12 39 55 22 30 29 37 48 47 26 29 25 21 7 18 6 8 31 22 22 11 13 5 4 10 8 19 22 26 24 27 26 37 40
73 58 40 51 45 48 12 23 18 24 15 21 32 30 26 34 41 35 48 45 24 30 6 22 13 3 1 3 5 23 25 10 2 12 9 7 9 15 7 22 11 13 17 20 33
65 30 31 45 46 31 14 16 13 24 19 22 19 9 26 33 51 55 60 38 41 38 6 18 16 4 9 16 29 12 19 4 9 5 7 5 6 10 5 11 18 17 14 19 16
43 11 46 64 14 7 20 18 22 32 23 14 11 13 47 55 49 31 48 39 75 50 27 13 11 18 41 7 6 3 15 16 12 11 4 3 9 7 8 7 13 20 17 21 23
46 16 37 83 14 20 9 23 23 3 17 8 15 13 39 38 27 17 25 10 74 49 34 19 6 15 12 3 1 23 20 34 7 4 13 12 9 9 9 10 7 9 10 8 8
25 10 16 51 21 28 28 24 23 31 26 9 15 20 41 32 12 24 22 5 58 48 25 18 5 8 23 41 20 31 35 29 27 9 11 32 11 10 16 14 8 6 14 13 3
16 10 19 11 18 22 32 27 32 25 25 9 13 34 44 26 12 24 20 12 22 43 14 11 10 6 11 8 20 29 31 33 35 42 24 57 38 36 33 16 16 16 27 27 17
22 12 14 8 26 27 28 31 34 30 11 11 21 41 38 34 30 52 31 30 38 16 25 1 12 10 5 11 13 9 28 30 50 46 53 33 42 2 32 41 39 40 46 39 27
26 26 21 17 12 20 27 33 44 39 34 42 24 32 40 38 35 43 39 37 26 31 30 19 10 6 10 4 14 7 49 51 39 53 41 45 23 15 10 15 28 33 40 38 29
Wind_Direction_850mb
239 238 241 241 246 248 250 250 230 244 249 241 235 242 227 217 213 218 216 226 218 217 212 194 216 203 193 197 190 175 204 216 207 183 198 164 176 160 172 143 167 189 184 170 178
239 239 242 242 244 248 248 248 233 231 241 236 230 235 236 223 218 216 220 221 221 209 208 180 204 185 181 183 178 201 219 213 196 201 200 177 192 160 164 160 190 184 192 174 176
237 238 240 240 244 246 246 248 238 228 232 231 228 231 230 225 202 219 218 218 218 218 220 197 189 173 181 178 180 185 218 194 188 187 155 181 187 177 170 193 202 195 185 174 180
237 236 239 241 241 243 247 254 240 230 224 228 225 228 221 213 215 230 219 207 207 211 212 207 216 149 208 174 171 199 210 179 157 183 157 176 181 194 203 181 208 193 198 181 187
238 237 237 241 243 242 247 256 243 235 218 223 225 221 202 203 215 217 213 206 204 201 206 195 180 174 158 140 187 219 180 182 170 176 180 172 198 203 215 211 183 188 192 192 194
234 235 233 236 241 241 246 247 252 235 226 235 219 218 195 208 210 211 211 203 201 201 209 212 204 193 166 140 35 339 173 194 181 180 178 177 194 197 227 204 193 188 197 199 202
229 233 232 233 236 239 240 243 248 234 233 237 215 211 191 196 202 217 222 194 195 200 206 210 213 192 171 127 215 11 206 214 197 186 174 154 175 221 220 193 194 192 199 202 204
224 232 228 228 232 240 243 242 235 261 228 225 210 203 210 206 199 216 220 208 191 194 204 204 208 190 170 139 65 36 302 199 189 183 174 202 238 226 201 191 202 197 197 204 209
226 232 234 226 227 234 242 246 242 251 233 221 215 211 202 185 201 212 214 208 193 189 203 188 185 153 143 138 104 87 218 206 188 209 156 211 234 202 189 197 204 205 204 207 209
226 229 231 230 230 235 241 242 244 250 247 231 229 189 168 186 183 193 210 212 187 186 154 172 203 179 192 175 183 166 197 222 206 184 200 200 243 177 196 205 209 207 209 211 213
221 223 226 225 224 226 228 221 235 257 247 237 177 192 178 162 170 175 197 198 154 141 176 175 195 205 180 191 174 167 197 187 194 173 179 218 237 229 196 210 216 216 214 217 220
215 217 221 218 211 215 215 203 208 215 283 235 202 191 169 163 126 154 174 142 151 155 124 97 223 204 178 179 150 176 185 188 113 147 200 216 240 237 217 222 217 215 215 220 215
210 210 214 208 203 212 217 214 211 222 248 215 205 181 171 167 141 154 155 129 137 150 161 163 214 168 162 178 161 185 188 172 146 158 191 209 262 230 227 229 228 226 225 224 219
207 205 208 191 199 210 216 217 223 219 285 227 189 183 169 177 136 158 147 135 129 134 134 223 253 168 159 180 164 176 195 155 144 179 212 213 263 228 225 221 216 225 221 226 224
205 201 204 195 193 207 200 211 206 179 250 161 158 175 165 168 137 173 161 144 136 146 166 172 244 177 178 173 169 165 153 147 148 191 231 177 245 217 242 228 223 223 221 227 228
201 198 197 195 193 202 212 170 166 198 232 188 137 170 159 146 159 143 167 130 119 108 324 20 309 282 213 108 176 142 114 85 95 177 247 224 229 231 216 226 230 221 218 225 229
197 195 193 191 202 176 150 145 156 241 116 217 169 157 160 154 131 154 174 150 140 133 151 147 241 306 284 128 151 181 156 142 181 204 238 53 225 258 237 243 236 228 225 226 229
193 187 187 188 191 184 183 53 215 210 212 265 167 155 160 150 162 168 162 162 158 137 128 184 169 204 198 187 183 176 180 159 172 187 176 109 235 235 266 268 257 255 253 243 238
184 182 184 186 176 163 141 181 226 225 153 208 161 156 157 158 140 159 176 177 166 174 149 180 161 171 214 170 166 182 199 113 104 12 153 205 265 265 270 265 249 261 253 253 249
175 173 183 182 177 169 167 194 219 245 302 218 179 173 158 162 147 163 176 186 172 186 42 174 122 137 74 103 18 204 143 164 214 157 204 193 260 241 209 249 283 282 275 253 250
161 148 188 177 174 167 204 205 199 233 197 230 190 139 157 161 163 163 172 179 192 182 165 175 125 155 182 208 188 156 183 157 150 199 185 195 209 215 231 252 278 288 299 288 266
147 147 169 168 170 187 205 185 205 253 219 275 241 160 170 172 171 169 187 174 185 162 173 196 110 150 191 81 321 144 172 186 203 186 148 77 270 175 216 268 272 295 305 284 283
141 111 174 171 176 194 224 210 213 142 222 234 230 196 166 173 162 178 169 57 171 170 162 182 130 118 104 33 215 220 193 201 139 86 188 185 198 170 212 250 279 296 348 353 290
135 152 171 195 208 189 187 205 212 229 255 272 281 157 148 173 116 172 153 136 176 170 155 109 127 162 181 205 148 196 201 200 188 209 145 236 190 212 204 188 200 108 51 7 333
154 181 172 177 200 213 193 200 211 217 224 205 262 170 161 161 123 162 147 109 152 174 152 128 133 118 57 71 154 186 175 171 192 221 198 248 227 227 247 214 229 278 299 304 309
145 155 163 166 192 192 211 215 196 196 193 218 237 184 174 169 176 174 161 164 174 169 187 329 143 136 57 70 88 137 173 180 210 217 234 251 255 214 233 251 260 272 285 287 262
170 156 160 172 169 185 207 207 209 196 221 217 251 200 192 190 172 156 168 167 143 168 174 156 117 89 161 111 74 322 205 201 210 222 227 233 243 156 209 225 231 247 265 267 258